TimeEDT,TemperatureF,Dew PointF,Humidity,Sea Level PressureIn,VisibilityMPH,Wind Direction,Wind SpeedMPH,Gust SpeedMPH,PrecipitationIn,Events,Conditions,WindDirDegrees,DateUTC
12:53 AM,41.0,37.9,89,29.86,10.0,Calm,Calm,-,N/A,,Clear,0,2012-10-21 04:53:00
1:53 AM,45.0,39.0,80,29.88,10.0,SSW,4.6,-,N/A,,Clear,210,2012-10-21 05:53:00
2:53 AM,44.1,39.0,82,29.88,10.0,SW,4.6,-,N/A,,Clear,220,2012-10-21 06:53:00
3:53 AM,42.1,37.9,85,29.89,10.0,Calm,Calm,-,N/A,,Clear,0,2012-10-21 07:53:00
4:53 AM,41.0,37.9,89,29.89,10.0,Calm,Calm,-,N/A,,Clear,0,2012-10-21 08:53:00
5:53 AM,39.0,37.0,93,29.91,10.0,Calm,Calm,-,N/A,,Clear,0,2012-10-21 09:53:00
6:53 AM,37.9,36.0,93,29.94,10.0,Calm,Calm,-,N/A,,Clear,0,2012-10-21 10:53:00
7:53 AM,39.0,37.9,96,29.96,10.0,Calm,Calm,-,N/A,,Clear,0,2012-10-21 11:53:00
8:53 AM,48.0,42.1,80,29.97,10.0,Calm,Calm,-,N/A,,Clear,0,2012-10-21 12:53:00
9:53 AM,55.0,42.1,62,29.98,10.0,WSW,3.5,-,N/A,,Clear,240,2012-10-21 13:53:00
10:53 AM,59.0,41.0,51,29.99,10.0,Variable,6.9,-,N/A,,Clear,0,2012-10-21 14:53:00
11:53 AM,60.1,39.9,47,29.99,10.0,West,8.1,17.3,N/A,,Scattered Clouds,280,2012-10-21 15:53:00
12:53 PM,61.0,39.0,44,29.97,10.0,Variable,6.9,16.1,N/A,,Mostly Cloudy,0,2012-10-21 16:53:00
1:53 PM,64.0,37.9,38,29.96,10.0,West,8.1,19.6,N/A,,Overcast,270,2012-10-21 17:53:00
3:53 PM,63.0,37.0,38,29.96,10.0,WNW,5.8,-,N/A,,Partly Cloudy,300,2012-10-21 19:53:00
4:53 PM,63.0,36.0,37,29.96,10.0,WNW,5.8,16.1,N/A,,Clear,290,2012-10-21 20:53:00
5:53 PM,60.1,35.1,39,29.98,10.0,West,5.8,-,N/A,,Clear,280,2012-10-21 21:53:00
6:53 PM,57.0,37.0,47,29.99,10.0,Calm,Calm,-,N/A,,Clear,0,2012-10-21 22:53:00
7:53 PM,55.9,37.0,49,30.00,10.0,SW,3.5,-,N/A,,Clear,230,2012-10-21 23:53:00
8:53 PM,48.9,39.9,71,30.01,10.0,Calm,Calm,-,N/A,,Clear,0,2012-10-22 00:53:00
9:53 PM,46.0,39.0,76,30.04,10.0,Calm,Calm,-,N/A,,Clear,0,2012-10-22 01:53:00
10:53 PM,44.1,39.9,85,30.04,10.0,Calm,Calm,-,N/A,,Clear,0,2012-10-22 02:53:00
11:53 PM,42.1,39.0,89,30.05,10.0,WSW,3.5,-,N/A,,Clear,240,2012-10-22 03:53:00